Regional Weather Roundup
Issued by NWS New Orleans/Baton Rouge, LA

Home | Current Version | Previous Version | Text Only | Print | Product List | Glossary On
Versions: 1 2 3 4 5 6 7 8 9 10 11 12 13 14 15 16 17 18 19 20 21 22 23 24 25 26 27 28 29 30 31 32 33 34 35 36 37 38 39 40 41 42 43 44 45 46 47 48 49 50
495
ASUS44 KLIX 272201
RWRLIX
NEW ORLEANS REGIONAL WEATHER ROUNDUP
NATIONAL WEATHER SERVICE NEW ORLEANS LA
400 PM CST THU NOV 27 2014

NOTE: "FAIR" INDICATES FEW OR NO CLOUDS BELOW 12,000 FEET WITH NO
      SIGNIFICANT WEATHER AND/OR OBSTRUCTIONS TO VISIBILITY.
      SKY/WX - SKY CONDITION AND SIGNIFICANT WEATHER.
      TMP - AIR TEMPERATURE.     DP    - DEWPOINT TEMPERATURE.
      RH  - RELATIVE HUMIDITY.   PRES  - PRESSURE.
      HI  - HEAT INDEX.          WCI   - WIND CHILL INDEX.

*  THESE STATIONS ARE NOT NWS OR FAA STATIONS AND ARE NOT UNDER
   NWS QUALITY CONTROL.

LAZ038-040-048-061>063-065>067-069-272300-
SOUTHEAST LOUISIANA

CITY           SKY/WX    TMP DP  RH WIND       PRES   REMARKS
N.O. AUDUBON     N/A     58  33  37 MISG        N/A
N.O. INTL ARPT MOSUNNY   60  33  36 N10       30.39R
N.O. LAKEFRONT SUNNY     60  44  55 NW8       30.40R
N.O. DOWNTOWN*   N/A     59  30  33 N7        30.40R
SLIDELL        SUNNY     60  29  30 N9        30.39R
BATON ROUGE    SUNNY     60  26  27 N7        30.41R
BOOTHVILLE     SUNNY     58  40  51 N7        30.38R
BELLE CHASSE   SUNNY     60  27  28 N8        30.38R
BOGALUSA*        N/A     58  28  31 N8        30.42R
NEW ROADS*     NOT AVBL
GONZALES*      NOT AVBL
HAMMOND*       NOT AVBL
HOUMA*         SUNNY     63  32  31 N13       30.38R
PORT FOURCHON* CLEAR     59  34  38 N14G22    30.41R

$$

MSZ070-080>082-272300-
SOUTHERN MISSISSIPPI

CITY           SKY/WX    TMP DP  RH WIND       PRES   REMARKS
MCCOMB         SUNNY     55  28  35 N9        30.41S
GULFPORT       CLEAR     58  29  33 N12G20    30.38R
BILOXI         CLEAR     58  31  36 VRB7      30.38R
PASCAGOULA     CLEAR     57  29  34 N13       30.38R
STENNIS ARPT*  SUNNY     59  21  23 MISG      30.39R

$$

COASTAL OBSERVATIONS
LAKE AND NEARSHORE STATIONS

STATION/POSITION TIME  TEMP    WIND        PRES    WAVE
                       AIR SEA DIR/SP/G            HT/PER
                 (UTC) (F)     (DEG/KT/KT) (MB)    (FT/S)
PASCAGOULA       2100   59     360/ 12/ 15 1027.8
WAVELAND YACHT   2100   58      10/ 12/ 14 1027.8
GRAND ISLE       2100   59 60   20/ 13/ 16 1028.9
SOUTHWEST PASS   2100   61                 1028.7
NEW CANAL        2100   57 55  360/  6/  7 1029.5
SHELL BEACH      2100   58 53  350/ 11/ 12 1028.5

OFFSHORE STATIONS

STATION/POSITION TIME  TEMP    WIND        PRES    WAVE
                       AIR SEA DIR/SP/G            HT/PER
                 (UTC) (F)     (DEG/KT/KT) (MB)    (FT/S)
64 S DAUPHIN ISL 2052   59 71  360/ 17/ 21 1028.4    4/ 5

$$




USA.gov is the U.S. government's official web portal to all federal, state and local government web resources and services.